TimeEDT,TemperatureF,Dew PointF,Humidity,Sea Level PressureIn,VisibilityMPH,Wind Direction,Wind SpeedMPH,Gust SpeedMPH,PrecipitationIn,Events,Conditions,WindDirDegrees,DateUTC
12:20 AM,66.2,66.2,100,29.82,7.0,South,5.8,-,N/A,,Mostly Cloudy,190,2013-09-21 04:20:00
12:28 AM,66.2,66.2,100,29.81,8.0,SSW,4.6,-,N/A,,Mostly Cloudy,200,2013-09-21 04:28:00
12:52 AM,66.9,66.9,100,29.78,8.0,SSW,3.5,-,0.00,Rain,Light Rain,210,2013-09-21 04:52:00
1:13 AM,66.2,66.2,100,29.80,5.0,South,5.8,-,0.01,Rain,Light Rain,190,2013-09-21 05:13:00
1:52 AM,66.9,66.9,100,29.77,5.0,South,5.8,-,0.09,Rain,Light Rain,190,2013-09-21 05:52:00
1:58 AM,66.2,66.2,100,29.79,4.0,South,4.6,-,0.02,Rain,Rain,180,2013-09-21 05:58:00
2:41 AM,66.2,66.2,100,29.77,5.0,South,3.5,-,0.12,Rain,Light Rain,190,2013-09-21 06:41:00
2:52 AM,66.9,66.9,100,29.74,5.0,SSW,8.1,-,0.16,Rain,Rain,200,2013-09-21 06:52:00
3:09 AM,66.2,66.2,100,29.76,6.0,SSW,5.8,-,0.02,Rain,Light Rain,210,2013-09-21 07:09:00
3:24 AM,66.2,66.2,100,29.76,7.0,SW,6.9,-,0.03,Rain,Light Rain,220,2013-09-21 07:24:00
3:35 AM,66.2,64.4,94,29.75,5.0,WNW,8.1,-,0.05,Rain,Rain,300,2013-09-21 07:35:00
3:41 AM,64.4,64.4,100,29.75,5.0,NNW,5.8,-,0.06,Rain,Rain,330,2013-09-21 07:41:00
3:47 AM,64.4,64.4,100,29.76,4.0,West,6.9,-,0.08,Rain,Rain,260,2013-09-21 07:47:00
3:52 AM,64.9,64.9,100,29.72,2.5,WNW,5.8,-,0.12,Rain,Heavy Rain,290,2013-09-21 07:52:00
3:57 AM,64.4,64.4,100,29.75,1.8,WNW,5.8,-,0.03,Rain,Heavy Rain,290,2013-09-21 07:57:00
4:05 AM,64.4,64.4,100,29.74,2.5,NW,6.9,-,0.10,Rain,Rain,320,2013-09-21 08:05:00
4:12 AM,64.4,64.4,100,29.73,4.0,WNW,5.8,-,0.12,Rain,Rain,300,2013-09-21 08:12:00
4:31 AM,64.4,64.4,100,29.74,2.5,WSW,4.6,-,0.20,Rain,Rain,250,2013-09-21 08:31:00
4:34 AM,64.4,64.4,100,29.74,3.0,SW,3.5,-,0.22,Rain,Rain,230,2013-09-21 08:34:00
4:52 AM,64.0,64.0,100,29.71,4.0,West,4.6,-,0.28,Rain,Rain,260,2013-09-21 08:52:00
5:01 AM,64.4,64.4,100,29.73,4.0,West,4.6,-,0.04,Rain,Rain,270,2013-09-21 09:01:00
5:12 AM,64.4,64.4,100,29.73,4.0,West,4.6,-,0.07,Rain,Rain,260,2013-09-21 09:12:00
5:52 AM,64.0,64.0,100,29.69,9.0,Calm,Calm,-,0.10,Rain,Light Rain,0,2013-09-21 09:52:00
6:01 AM,64.4,64.4,100,29.71,10.0,WNW,3.5,-,0.00,Rain,Light Rain,290,2013-09-21 10:01:00
6:39 AM,64.4,64.4,100,29.73,10.0,West,3.5,-,0.01,Rain,Light Rain,270,2013-09-21 10:39:00
6:52 AM,64.0,64.0,100,29.70,10.0,Calm,Calm,-,0.01,,Overcast,0,2013-09-21 10:52:00
7:42 AM,64.4,64.4,100,29.73,6.0,SW,3.5,-,0.01,Rain,Light Rain,230,2013-09-21 11:42:00
7:52 AM,64.0,64.0,100,29.71,4.0,SW,3.5,-,0.02,Rain,Light Rain,230,2013-09-21 11:52:00
8:03 AM,64.4,64.4,100,29.73,4.0,WSW,4.6,-,0.02,Rain,Light Rain,250,2013-09-21 12:03:00
8:44 AM,64.4,64.4,100,29.72,3.0,Calm,Calm,-,0.08,Rain,Rain,0,2013-09-21 12:44:00
8:52 AM,64.0,64.0,100,29.70,5.0,Calm,Calm,-,0.09,Rain,Light Rain,0,2013-09-21 12:52:00
9:41 AM,62.6,60.8,94,29.72,4.0,NW,11.5,-,0.07,Rain,Light Rain,320,2013-09-21 13:41:00
9:50 AM,62.6,62.6,100,29.73,5.0,WNW,8.1,-,0.08,Rain,Light Rain,300,2013-09-21 13:50:00
9:52 AM,62.1,62.1,100,29.71,5.0,NW,10.4,-,0.08,Rain,Light Rain,310,2013-09-21 13:52:00
10:05 AM,62.6,60.8,94,29.73,6.0,NW,13.8,18.4,0.01,Rain,Light Rain,310,2013-09-21 14:05:00
10:52 AM,60.1,59.0,96,29.73,5.0,NW,9.2,-,0.02,Rain,Light Rain,310,2013-09-21 14:52:00
10:59 AM,60.8,59.0,94,29.74,8.0,NW,5.8,-,0.00,,Overcast,310,2013-09-21 14:59:00
11:41 AM,60.8,59.0,94,29.74,8.0,WNW,11.5,-,0.00,,Overcast,300,2013-09-21 15:41:00
11:43 AM,60.8,59.0,94,29.74,8.0,WNW,9.2,-,0.00,,Overcast,300,2013-09-21 15:43:00
11:45 AM,60.8,59.0,94,29.75,8.0,WNW,11.5,-,0.00,,Overcast,300,2013-09-21 15:45:00
11:52 AM,60.1,59.0,96,29.73,8.0,WNW,6.9,-,0.00,,Overcast,300,2013-09-21 15:52:00
11:58 AM,60.8,57.2,88,29.75,8.0,WNW,9.2,-,N/A,,Overcast,300,2013-09-21 15:58:00
12:13 PM,60.8,57.2,88,29.75,8.0,NW,11.5,-,N/A,,Overcast,310,2013-09-21 16:13:00
12:43 PM,60.8,57.2,88,29.76,10.0,WNW,11.5,-,N/A,,Mostly Cloudy,300,2013-09-21 16:43:00
12:52 PM,61.0,57.9,90,29.74,10.0,NW,11.5,-,N/A,,Mostly Cloudy,310,2013-09-21 16:52:00
1:27 PM,64.4,57.2,77,29.76,10.0,WNW,10.4,18.4,N/A,,Mostly Cloudy,290,2013-09-21 17:27:00
1:40 PM,66.2,57.2,73,29.75,10.0,NW,13.8,-,N/A,,Mostly Cloudy,320,2013-09-21 17:40:00
1:52 PM,64.0,55.9,75,29.74,10.0,WNW,11.5,-,N/A,,Mostly Cloudy,300,2013-09-21 17:52:00
2:52 PM,68.0,54.0,61,29.73,10.0,WNW,9.2,-,N/A,,Partly Cloudy,300,2013-09-21 18:52:00
3:52 PM,66.9,52.0,59,29.74,10.0,WNW,9.2,-,N/A,,Mostly Cloudy,300,2013-09-21 19:52:00
4:52 PM,66.9,53.1,61,29.75,10.0,NW,8.1,-,N/A,,Overcast,310,2013-09-21 20:52:00
5:52 PM,66.0,52.0,60,29.77,10.0,NW,11.5,-,N/A,,Overcast,320,2013-09-21 21:52:00
6:52 PM,63.0,54.0,72,29.77,10.0,NW,3.5,-,N/A,,Mostly Cloudy,320,2013-09-21 22:52:00
7:52 PM,61.0,54.0,78,29.79,10.0,WNW,3.5,-,N/A,,Overcast,300,2013-09-21 23:52:00
8:52 PM,59.0,53.1,81,29.81,10.0,WNW,3.5,-,N/A,,Scattered Clouds,300,2013-09-22 00:52:00
9:52 PM,55.9,51.1,84,29.83,10.0,NW,3.5,-,N/A,,Clear,310,2013-09-22 01:52:00
10:52 PM,55.9,48.9,77,29.85,10.0,WNW,6.9,-,N/A,,Clear,300,2013-09-22 02:52:00
11:52 PM,54.0,48.0,80,29.86,10.0,WNW,8.1,-,N/A,,Clear,300,2013-09-22 03:52:00